Previsão horária em 3 internacional

Hoje, 12 Abril, Segunda-feira

Tempo Temperatura Precipitação Vento Pressão Humidade
00:00 +13°C° 0 mm 6 m/s 758 mmHg 41%
01:00 +11°C° 0 mm 6 m/s 758 mmHg 45%
02:00 +11°C° 0 mm 6 m/s 758 mmHg 48%
03:00 +10°C° 0 mm 6 m/s 758 mmHg 50%
04:00 +9°C° 0 mm 5 m/s 758 mmHg 53%
05:00 +9°C° 0 mm 6 m/s 758 mmHg 51%
06:00 +10°C° 0 mm 6 m/s 759 mmHg 49%
07:00 +10°C° 0 mm 7 m/s 759 mmHg 47%
08:00 +12°C° 0 mm 7 m/s 759 mmHg 40%
09:00 +15°C° 0 mm 7 m/s 759 mmHg 34%
10:00 +16°C° 0 mm 8 m/s 759 mmHg 27%
11:00 +17°C° 0 mm 8 m/s 758 mmHg 24%
12:00 +18°C° 0 mm 8 m/s 758 mmHg 21%
13:00 +20°C° 0 mm 8 m/s 758 mmHg 19%
14:00 +21°C° 0 mm 8 m/s 758 mmHg 18%
15:00 +21°C° 0 mm 8 m/s 757 mmHg 17%
16:00 +21°C° 0 mm 8 m/s 757 mmHg 16%
17:00 +20°C° 0 mm 7 m/s 757 mmHg 18%
18:00 +19°C° 0 mm 5 m/s 757 mmHg 20%
19:00 +18°C° 0 mm 4 m/s 757 mmHg 21%
20:00 +17°C° 0 mm 4 m/s 757 mmHg 23%
21:00 +15°C° 0 mm 4 m/s 757 mmHg 25%
22:00 +15°C° 0 mm 4 m/s 757 mmHg 27%
23:00 +14°C° 0 mm 5 m/s 757 mmHg 31%

Amanhã, 13 Abril, Terça-feira

Tempo Temperatura Precipitação Vento Pressão Humidade
00:00 +13°C° 0 mm 5 m/s 757 mmHg 34%
01:00 +13°C° 0 mm 5 m/s 757 mmHg 38%
02:00 +12°C° 0 mm 5 m/s 757 mmHg 41%
03:00 +12°C° 0 mm 5 m/s 757 mmHg 43%
04:00 +10°C° 0 mm 5 m/s 757 mmHg 46%
05:00 +12°C° 0 mm 5 m/s 757 mmHg 44%
06:00 +11°C° 0 mm 6 m/s 757 mmHg 42%
07:00 +13°C° 0 mm 6 m/s 757 mmHg 41%
08:00 +15°C° 0 mm 7 m/s 757 mmHg 35%
09:00 +16°C° 0 mm 7 m/s 757 mmHg 29%
10:00 +18°C° 0 mm 8 m/s 758 mmHg 24%
11:00 +20°C° 0 mm 8 m/s 757 mmHg 23%
12:00 +20°C° 0 mm 8 m/s 757 mmHg 22%
13:00 +21°C° 0 mm 8 m/s 757 mmHg 21%
14:00 +21°C° 0 mm 8 m/s 757 mmHg 21%
15:00 +21°C° 0 mm 8 m/s 757 mmHg 22%
16:00 +21°C° 0 mm 8 m/s 757 mmHg 22%
17:00 +21°C° 0 mm 7 m/s 757 mmHg 24%
18:00 +20°C° 0 mm 6 m/s 757 mmHg 25%
19:00 +19°C° 0 mm 5 m/s 757 mmHg 26%
20:00 +18°C° 0 mm 4 m/s 757 mmHg 31%
21:00 +17°C° 0 mm 3 m/s 756 mmHg 35%
22:00 +16°C° 0 mm 2 m/s 756 mmHg 39%
23:00 +15°C° 0 mm 2 m/s 756 mmHg 42%

Depois de amanhã, 14 Abril, Quarta-feira

Tempo Temperatura Precipitação Vento Pressão Humidade
00:00 +15°C° 0 mm 2 m/s 756 mmHg 45%
01:00 +15°C° 0 mm 2 m/s 756 mmHg 48%
02:00 +13°C° 0 mm 3 m/s 756 mmHg 45%
03:00 +13°C° 0 mm 4 m/s 755 mmHg 42%
04:00 +13°C° 0 mm 5 m/s 755 mmHg 40%
05:00 +14°C° 0 mm 6 m/s 755 mmHg 37%
06:00 +15°C° 0 mm 7 m/s 755 mmHg 35%
07:00 +15°C° 0 mm 8 m/s 755 mmHg 32%
08:00 +17°C° 0 mm 8 m/s 755 mmHg 29%
09:00 +18°C° 0 mm 9 m/s 755 mmHg 26%
10:00 +19°C° 0 mm 9 m/s 755 mmHg 22%
11:00 +21°C° 0 mm 9 m/s 754 mmHg 24%
12:00 +21°C° 0 mm 10 m/s 754 mmHg 25%
13:00 +22°C° 0 mm 10 m/s 753 mmHg 26%
14:00 +22°C° 0 mm 10 m/s 753 mmHg 26%
15:00 +22°C° 0 mm 9 m/s 752 mmHg 26%
16:00 +22°C° 0 mm 9 m/s 752 mmHg 26%
17:00 +21°C° 0.1 mm 7 m/s 752 mmHg 32%
18:00 +19°C° 0.1 mm 5 m/s 752 mmHg 38%
19:00 +18°C° 0.1 mm 3 m/s 752 mmHg 45%
20:00 +17°C° 0 mm 4 m/s 752 mmHg 42%
21:00 +16°C° 0 mm 5 m/s 751 mmHg 38%
22:00 +16°C° 0 mm 7 m/s 751 mmHg 35%
23:00 +15°C° 0 mm 6 m/s 751 mmHg 32%

15 Abril, Quinta-feira

Tempo Temperatura Precipitação Vento Pressão Humidade
00:00 +14°C° 0 mm 6 m/s 751 mmHg 30%
01:00 +14°C° 0 mm 5 m/s 750 mmHg 27%
02:00 +13°C° 0 mm 5 m/s 750 mmHg 28%
03:00 +12°C° 0 mm 5 m/s 750 mmHg 29%
04:00 +12°C° 0 mm 4 m/s 750 mmHg 31%
05:00 +12°C° 0 mm 4 m/s 750 mmHg 30%
06:00 +13°C° 0 mm 5 m/s 751 mmHg 30%
07:00 +14°C° 0 mm 5 m/s 751 mmHg 30%
08:00 +15°C° 0 mm 5 m/s 751 mmHg 29%
09:00 +17°C° 0 mm 5 m/s 751 mmHg 28%
10:00 +19°C° 0 mm 5 m/s 751 mmHg 27%
11:00 +20°C° 0 mm 6 m/s 751 mmHg 26%
12:00 +21°C° 0 mm 6 m/s 750 mmHg 25%
13:00 +22°C° 0 mm 6 m/s 750 mmHg 24%
14:00 +22°C° 0 mm 6 m/s 750 mmHg 24%
15:00 +22°C° 0 mm 5 m/s 750 mmHg 23%
16:00 +22°C° 0 mm 5 m/s 750 mmHg 23%
17:00 +21°C° 0 mm 5 m/s 750 mmHg 28%
18:00 +20°C° 0 mm 5 m/s 750 mmHg 33%
19:00 +18°C° 0 mm 4 m/s 750 mmHg 38%
20:00 +18°C° 0 mm 4 m/s 750 mmHg 40%
21:00 +17°C° 0 mm 3 m/s 750 mmHg 43%
22:00 +16°C° 0 mm 2 m/s 750 mmHg 45%
23:00 +15°C° 0 mm 1 m/s 749 mmHg 45%

16 Abril, Sexta-feira

Tempo Temperatura Precipitação Vento Pressão Humidade
00:00 +15°C° 0 mm 1 m/s 749 mmHg 46%
01:00 +13°C° 0 mm 0 m/s 749 mmHg 47%
02:00 +13°C° 0 mm 0 m/s 749 mmHg 47%
03:00 +13°C° 0 mm 0 m/s 749 mmHg 47%
04:00 +12°C° 0 mm 0 m/s 749 mmHg 47%
05:00 +14°C° 0 mm 1 m/s 749 mmHg 45%
06:00 +16°C° 0 mm 2 m/s 749 mmHg 42%
07:00 +17°C° 0 mm 2 m/s 749 mmHg 40%
08:00 +18°C° 0 mm 3 m/s 749 mmHg 35%
09:00 +20°C° 0 mm 4 m/s 749 mmHg 30%
10:00 +22°C° 0 mm 4 m/s 749 mmHg 25%
11:00 +23°C° 0 mm 5 m/s 748 mmHg 22%
12:00 +23°C° 0 mm 6 m/s 748 mmHg 20%
13:00 +24°C° 0 mm 6 m/s 748 mmHg 18%
14:00 +24°C° 0 mm 7 m/s 748 mmHg 18%
15:00 +23°C° 0 mm 7 m/s 748 mmHg 19%
16:00 +23°C° 0 mm 8 m/s 748 mmHg 20%
17:00 +22°C° 0 mm 6 m/s 748 mmHg 23%
18:00 +21°C° 0 mm 5 m/s 748 mmHg 26%
19:00 +20°C° 0 mm 4 m/s 747 mmHg 29%
20:00 +19°C° 0 mm 4 m/s 747 mmHg 29%
21:00 +18°C° 0 mm 4 m/s 747 mmHg 30%
22:00 +17°C° 0 mm 4 m/s 747 mmHg 31%
23:00 +17°C° 0 mm 3 m/s 747 mmHg 33%

17 Abril, Sábado

Tempo Temperatura Precipitação Vento Pressão Humidade
00:00 +16°C° 0 mm 3 m/s 747 mmHg 34%
01:00 +16°C° 0 mm 3 m/s 747 mmHg 36%
02:00 +14°C° 0 mm 3 m/s 747 mmHg 38%
03:00 +13°C° 0 mm 3 m/s 747 mmHg 41%
04:00 +13°C° 0 mm 3 m/s 747 mmHg 43%
05:00 +14°C° 0 mm 3 m/s 747 mmHg 41%
06:00 +14°C° 0 mm 4 m/s 747 mmHg 39%
07:00 +15°C° 0 mm 4 m/s 748 mmHg 38%
08:00 +18°C° 0 mm 4 m/s 748 mmHg 33%
09:00 +19°C° 0 mm 5 m/s 748 mmHg 29%
10:00 +21°C° 0 mm 5 m/s 748 mmHg 25%
11:00 +22°C° 0 mm 6 m/s 748 mmHg 23%
12:00 +23°C° 0 mm 7 m/s 748 mmHg 21%
13:00 +24°C° 0 mm 8 m/s 748 mmHg 19%
14:00 +24°C° 0 mm 8 m/s 748 mmHg 18%
15:00 +24°C° 0 mm 9 m/s 748 mmHg 17%
16:00 +24°C° 0 mm 9 m/s 748 mmHg 16%
17:00 +23°C° 0 mm 8 m/s 748 mmHg 17%
18:00 +22°C° 0 mm 6 m/s 749 mmHg 19%
19:00 +21°C° 0 mm 4 m/s 749 mmHg 20%
20:00 +20°C° 0 mm 4 m/s 749 mmHg 23%
21:00 +19°C° 0 mm 4 m/s 749 mmHg 25%
22:00 +18°C° 0 mm 4 m/s 750 mmHg 28%
23:00 +17°C° 0 mm 4 m/s 750 mmHg 37%
Mostrar mais